,,,PA_Meas_PMT16A,,PR_Meas_QMR101_102,,RH_Meas_QMH101,,SR_Meas_QMS101,,TA_Meas_QMH101,,GenWind,,GenWind,
date,time,status,PA,status,PR,status,RH,status,SR,status,TA,status,DirAvg,status,SpdAvg,
2010-08-22, 00:00:04,VALID,1000.07,VALID,0,VALID,89.1826,VALID,0,VALID,24.6575,VALID,110,VALID,1.20547,
2010-08-22, 00:01:04,VALID,1000.04,VALID,0,VALID,89.4649,VALID,0,VALID,24.638,VALID,108,VALID,0.898438,
2010-08-22, 00:02:04,VALID,999.974,VALID,0,VALID,89.6175,VALID,0,VALID,24.638,VALID,98,VALID,0.813672,
2010-08-22, 00:03:04,VALID,999.94,VALID,0,VALID,89.7243,VALID,0,VALID,24.638,VALID,98,VALID,0.369141,
2010-08-22, 00:04:04,VALID,999.888,VALID,0,VALID,89.7472,VALID,0,VALID,24.5989,VALID,98,VALID,0.3875,
2010-08-22, 00:05:04,VALID,999.858,VALID,0,VALID,88.7325,VALID,0,VALID,24.5599,VALID,86,VALID,0.949219,
2010-08-22, 00:06:04,VALID,999.816,VALID,0,VALID,87.8474,VALID,0,VALID,24.558,VALID,77,VALID,1.10781,
2010-08-22, 00:07:04,VALID,999.788,VALID,0,VALID,87.321,VALID,0,VALID,24.6166,VALID,63,VALID,0.827344,
2010-08-22, 00:08:04,VALID,999.764,VALID,0,VALID,87.0387,VALID,0,VALID,24.6361,VALID,79,VALID,1.08359,
2010-08-22, 00:09:04,VALID,999.731,VALID,0,VALID,87.2447,VALID,0,VALID,24.677,VALID,76,VALID,0.676172,
2010-08-22, 00:10:04,VALID,999.702,VALID,0,VALID,87.115,VALID,0,VALID,24.677,VALID,83,VALID,0.744531,
2010-08-22, 00:11:04,VALID,999.645,VALID,0,VALID,87.1074,VALID,0,VALID,24.6556,VALID,83,VALID,0.641016,
2010-08-22, 00:12:04,VALID,999.649,VALID,0,VALID,87.1226,VALID,0,VALID,24.6751,VALID,103,VALID,0.426562,
2010-08-22, 00:13:04,VALID,999.612,VALID,0,VALID,87.1532,VALID,0,VALID,24.6751,VALID,98,VALID,0.171484,
2010-08-22, 00:14:04,VALID,999.647,VALID,0,VALID,87.115,VALID,0,VALID,24.677,VALID,98,VALID,0.392188,
2010-08-22, 00:15:04,VALID,999.621,VALID,0,VALID,87.0006,VALID,0,VALID,24.677,VALID,98,VALID,0.733984,
2010-08-22, 00:16:04,VALID,999.614,VALID,0,VALID,86.9624,VALID,0,VALID,24.677,VALID,98,VALID,0.593359,
2010-08-22, 00:17:04,VALID,999.633,VALID,0,VALID,87.3515,VALID,0,VALID,24.6965,VALID,97,VALID,1.04023,
2010-08-22, 00:18:04,VALID,999.608,VALID,0,VALID,87.1608,VALID,0,VALID,24.6751,VALID,79,VALID,1.00508,
2010-08-22, 00:19:04,VALID,999.602,VALID,0,VALID,87.3134,VALID,0,VALID,24.6556,VALID,78,VALID,0.441797,
2010-08-22, 00:20:04,VALID,999.617,VALID,0,VALID,87.4126,VALID,0,VALID,24.6751,VALID,78,VALID,0.767969,
2010-08-22, 00:21:04,VALID,999.591,VALID,0,VALID,87.382,VALID,0,VALID,24.6556,VALID,76,VALID,0.409766,
2010-08-22, 00:22:04,VALID,999.605,VALID,0,VALID,87.5041,VALID,0,VALID,24.6361,VALID,76,VALID,0.333594,
2010-08-22, 00:23:04,VALID,999.621,VALID,0,VALID,87.672,VALID,0,VALID,24.638,VALID,76,VALID,0.470703,
2010-08-22, 00:24:04,VALID,999.612,VALID,0,VALID,87.4965,VALID,0,VALID,24.638,VALID,97,VALID,0.754297,
2010-08-22, 00:25:04,VALID,999.624,VALID,0,VALID,87.8932,VALID,0,VALID,24.6166,VALID,97,VALID,0.509766,
2010-08-22, 00:26:04,VALID,999.615,VALID,0,VALID,87.6414,VALID,0,VALID,24.6166,VALID,114,VALID,0.617578,
2010-08-22, 00:27:04,VALID,999.602,VALID,0,VALID,87.6491,VALID,0,VALID,24.5971,VALID,120,VALID,0.590234,
2010-08-22, 00:28:04,VALID,999.595,VALID,0,VALID,87.9771,VALID,0,VALID,24.5971,VALID,129,VALID,0.749609,
2010-08-22, 00:29:04,VALID,999.595,VALID,0,VALID,87.939,VALID,0,VALID,24.5775,VALID,138,VALID,0.737109,
2010-08-22, 00:30:04,VALID,999.589,VALID,0,VALID,87.7559,VALID,0,VALID,24.558,VALID,134,VALID,0.746484,
2010-08-22, 00:31:04,VALID,999.579,VALID,0,VALID,88.0534,VALID,0,VALID,24.558,VALID,135,VALID,0.777344,
2010-08-22, 00:32:04,VALID,999.589,VALID,0,VALID,88.1603,VALID,0,VALID,24.5794,VALID,136,VALID,0.646484,
2010-08-22, 00:33:04,VALID,999.6,VALID,0.5,VALID,88.4273,VALID,0,VALID,24.5404,VALID,138,VALID,0.582031,
2010-08-22, 00:34:04,VALID,999.577,VALID,0,VALID,88.3052,VALID,0,VALID,24.519,VALID,165,VALID,0.764844,
2010-08-22, 00:35:04,VALID,999.574,VALID,0,VALID,87.9085,VALID,0,VALID,24.519,VALID,165,VALID,0.855469,
2010-08-22, 00:36:04,VALID,999.578,VALID,0,VALID,87.5575,VALID,0,VALID,24.5599,VALID,174,VALID,0.90625,
2010-08-22, 00:37:04,VALID,999.579,VALID,0,VALID,87.527,VALID,0,VALID,24.5599,VALID,172,VALID,0.665625,
2010-08-22, 00:38:04,VALID,999.581,VALID,0,VALID,87.733,VALID,0,VALID,24.5599,VALID,154,VALID,0.766797,
2010-08-22, 00:39:04,VALID,999.589,VALID,0,VALID,86.8709,VALID,0,VALID,24.5599,VALID,172,VALID,0.471875,
2010-08-22, 00:40:04,VALID,999.571,VALID,0.5,VALID,86.9014,VALID,0,VALID,24.5794,VALID,152,VALID,0.723047,
2010-08-22, 00:41:04,VALID,999.608,VALID,0,VALID,87.2676,VALID,0,VALID,24.5794,VALID,138,VALID,0.447266,
2010-08-22, 00:42:04,VALID,999.579,VALID,0,VALID,87.382,VALID,0,VALID,24.5599,VALID,128,VALID,0.601172,
2010-08-22, 00:43:04,VALID,999.582,VALID,0,VALID,87.1074,VALID,0,VALID,24.5599,VALID,123,VALID,0.725781,
2010-08-22, 00:44:04,VALID,999.554,VALID,0,VALID,86.8098,VALID,0,VALID,24.558,VALID,123,VALID,0.612109,
2010-08-22, 00:45:04,VALID,999.596,VALID,0,VALID,87.0921,VALID,0,VALID,24.5989,VALID,123,VALID,0.455859,
2010-08-22, 00:46:04,VALID,999.577,VALID,0.5,VALID,87.115,VALID,0,VALID,24.5775,VALID,124,VALID,0.40625,
2010-08-22, 00:47:04,VALID,999.535,VALID,0,VALID,86.9014,VALID,0,VALID,24.558,VALID,130,VALID,0.823047,
2010-08-22, 00:48:04,VALID,999.528,VALID,0,VALID,86.8174,VALID,0,VALID,24.5794,VALID,169,VALID,0.5625,
2010-08-22, 00:49:04,VALID,999.521,VALID,0,VALID,87.4202,VALID,0,VALID,24.5599,VALID,136,VALID,0.878516,
2010-08-22, 00:50:04,VALID,999.518,VALID,0,VALID,87.3744,VALID,0,VALID,24.5209,VALID,145,VALID,0.905859,
2010-08-22, 00:51:04,VALID,999.537,VALID,0.5,VALID,88.1832,VALID,0,VALID,24.4818,VALID,133,VALID,0.758594,
2010-08-22, 00:52:04,VALID,999.544,VALID,0,VALID,88.6714,VALID,0,VALID,24.4428,VALID,128,VALID,0.566797,
2010-08-22, 00:53:04,VALID,999.525,VALID,0,VALID,88.9995,VALID,0,VALID,24.3629,VALID,128,VALID,0.667188,
2010-08-22, 00:54:04,VALID,999.51,VALID,0,VALID,89.2284,VALID,0,VALID,24.3238,VALID,128,VALID,0.675781,
2010-08-22, 00:55:04,VALID,999.501,VALID,0,VALID,89.3505,VALID,0,VALID,24.3062,VALID,128,VALID,0.630859,
2010-08-22, 00:56:04,VALID,999.486,VALID,0,VALID,89.4726,VALID,0,VALID,24.2671,VALID,139,VALID,0.646484,
2010-08-22, 00:57:04,VALID,999.434,VALID,0.5,VALID,89.6251,VALID,0,VALID,24.2476,VALID,134,VALID,0.758594,
2010-08-22, 00:58:04,VALID,999.449,VALID,0,VALID,89.793,VALID,0,VALID,24.2281,VALID,133,VALID,0.517578,
2010-08-22, 00:59:04,VALID,999.434,VALID,0,VALID,89.793,VALID,0,VALID,24.2263,VALID,118,VALID,0.584375,
2010-08-22, 01:00:04,VALID,999.429,VALID,0,VALID,89.9685,VALID,0,VALID,24.2263,VALID,113,VALID,0.684375,
2010-08-22, 01:01:04,VALID,999.41,VALID,0,VALID,89.938,VALID,0,VALID,24.2281,VALID,106,VALID,0.796484,
2010-08-22, 01:02:04,VALID,999.406,VALID,0.5,VALID,90.0677,VALID,0,VALID,24.2476,VALID,105,VALID,0.658594,
2010-08-22, 01:03:04,VALID,999.392,VALID,0,VALID,90.1592,VALID,0,VALID,24.2281,VALID,106,VALID,0.826563,
2010-08-22, 01:04:04,VALID,999.412,VALID,0,VALID,90.2966,VALID,0,VALID,24.2281,VALID,108,VALID,0.689062,
2010-08-22, 01:05:04,VALID,999.416,VALID,0,VALID,90.3576,VALID,0,VALID,24.2281,VALID,109,VALID,0.869141,
2010-08-22, 01:06:04,VALID,999.349,VALID,0,VALID,90.3957,VALID,0,VALID,24.2476,VALID,108,VALID,0.878906,
2010-08-22, 01:07:04,VALID,999.358,VALID,0,VALID,90.4415,VALID,0,VALID,24.2671,VALID,130,VALID,1.21211,
2010-08-22, 01:08:04,VALID,999.365,VALID,0.5,VALID,90.5178,VALID,0,VALID,24.2476,VALID,129,VALID,0.912891,
2010-08-22, 01:09:04,VALID,999.348,VALID,0,VALID,90.7009,VALID,0,VALID,24.2263,VALID,132,VALID,0.843359,
2010-08-22, 01:10:04,VALID,999.349,VALID,0,VALID,90.8764,VALID,0,VALID,24.2281,VALID,148,VALID,0.969531,
2010-08-22, 01:11:04,VALID,999.3,VALID,0,VALID,91.029,VALID,0,VALID,24.2281,VALID,147,VALID,1.01719,
2010-08-22, 01:12:04,VALID,999.277,VALID,0,VALID,91.1434,VALID,0,VALID,24.2281,VALID,147,VALID,0.871875,
2010-08-22, 01:13:04,VALID,999.284,VALID,0,VALID,91.3494,VALID,0,VALID,24.1872,VALID,158,VALID,0.984375,
2010-08-22, 01:14:04,VALID,999.29,VALID,0,VALID,91.5097,VALID,0,VALID,24.2067,VALID,157,VALID,1.01016,
2010-08-22, 01:15:04,VALID,999.26,VALID,0.5,VALID,91.6012,VALID,0,VALID,24.2281,VALID,149,VALID,0.966406,
2010-08-22, 01:16:04,VALID,999.236,VALID,0,VALID,91.6623,VALID,0,VALID,24.2263,VALID,144,VALID,1.43555,
2010-08-22, 01:17:04,VALID,999.249,VALID,0,VALID,91.5478,VALID,0,VALID,24.2281,VALID,154,VALID,1.37031,
2010-08-22, 01:18:04,VALID,999.195,VALID,0,VALID,91.5631,VALID,0,VALID,24.2067,VALID,157,VALID,1.15859,
2010-08-22, 01:19:04,VALID,999.164,VALID,0.5,VALID,91.5173,VALID,0,VALID,24.2281,VALID,166,VALID,1.06953,
2010-08-22, 01:20:04,VALID,999.145,VALID,0,VALID,91.7004,VALID,0,VALID,24.2476,VALID,176,VALID,1.23203,
2010-08-22, 01:21:04,VALID,999.108,VALID,0,VALID,91.8072,VALID,0,VALID,24.2281,VALID,178,VALID,1.79766,
2010-08-22, 01:22:04,VALID,999.109,VALID,0,VALID,91.7691,VALID,0,VALID,24.2067,VALID,174,VALID,2.24766,
2010-08-22, 01:23:04,VALID,999.098,VALID,0,VALID,91.6546,VALID,0,VALID,24.2086,VALID,183,VALID,2.2,
2010-08-22, 01:24:04,VALID,999.066,VALID,0.5,VALID,91.5936,VALID,0,VALID,24.2067,VALID,189,VALID,1.45859,
2010-08-22, 01:25:04,VALID,999.021,VALID,0,VALID,91.5783,VALID,0,VALID,24.1287,VALID,188,VALID,1.37227,
2010-08-22, 01:26:04,VALID,999.04,VALID,0,VALID,91.502,VALID,0,VALID,24.111,VALID,187,VALID,1.53867,
2010-08-22, 01:27:04,VALID,999.01,VALID,0,VALID,91.4944,VALID,0,VALID,24.0525,VALID,178,VALID,1.82344,
2010-08-22, 01:28:04,VALID,999.023,VALID,0,VALID,91.6241,VALID,0,VALID,24.0116,VALID,177,VALID,1.63867,
2010-08-22, 01:29:04,VALID,999.008,VALID,0.5,VALID,91.8606,VALID,0,VALID,24.0329,VALID,167,VALID,1.2668,
2010-08-22, 01:30:04,VALID,999.011,VALID,0,VALID,91.8683,VALID,0,VALID,23.9744,VALID,169,VALID,1.70039,
2010-08-22, 01:31:04,VALID,999.038,VALID,0,VALID,91.9293,VALID,0,VALID,23.9354,VALID,167,VALID,1.36406,
2010-08-22, 01:32:04,VALID,999.051,VALID,0,VALID,92.0437,VALID,0,VALID,23.9159,VALID,168,VALID,1.43633,
2010-08-22, 01:33:04,VALID,999.011,VALID,0,VALID,92.1353,VALID,0,VALID,23.8768,VALID,175,VALID,1.29961,
2010-08-22, 01:34:04,VALID,998.99,VALID,0,VALID,92.1963,VALID,0,VALID,23.8573,VALID,177,VALID,1.27969,
2010-08-22, 01:35:04,VALID,999.02,VALID,0.5,VALID,92.2497,VALID,0,VALID,23.8573,VALID,178,VALID,1.12617,
2010-08-22, 01:36:04,VALID,998.993,VALID,0,VALID,92.3794,VALID,0,VALID,23.8573,VALID,189,VALID,1.38906,
2010-08-22, 01:37:04,VALID,999.047,VALID,0,VALID,92.5244,VALID,0,VALID,23.8768,VALID,184,VALID,1.29336,
2010-08-22, 01:38:04,VALID,999.061,VALID,0,VALID,92.5397,VALID,0,VALID,23.8378,VALID,174,VALID,1.81562,
2010-08-22, 01:39:04,VALID,999.072,VALID,0,VALID,92.6312,VALID,0,VALID,23.8555,VALID,167,VALID,1.75234,
2010-08-22, 01:40:04,VALID,999.066,VALID,0,VALID,92.6923,VALID,0,VALID,23.8573,VALID,172,VALID,1.57461,
2010-08-22, 01:41:04,VALID,999.036,VALID,0.5,VALID,92.7228,VALID,0,VALID,23.8573,VALID,194,VALID,1.83086,
2010-08-22, 01:42:04,VALID,999.052,VALID,0,VALID,92.7685,VALID,0,VALID,23.8573,VALID,193,VALID,2.03398,
2010-08-22, 01:43:04,VALID,999.003,VALID,0,VALID,92.7685,VALID,0,VALID,23.836,VALID,191,VALID,1.71484,
2010-08-22, 01:44:04,VALID,999.003,VALID,0,VALID,92.8143,VALID,0,VALID,23.8768,VALID,197,VALID,1.72187,
2010-08-22, 01:45:04,VALID,999.033,VALID,0,VALID,92.8143,VALID,0,VALID,23.8378,VALID,200,VALID,1.84063,
2010-08-22, 01:46:04,VALID,999.036,VALID,0,VALID,92.8525,VALID,0,VALID,23.8183,VALID,191,VALID,1.9457,
2010-08-22, 01:47:04,VALID,999.04,VALID,0.5,VALID,92.8525,VALID,0,VALID,23.8183,VALID,204,VALID,1.59766,
2010-08-22, 01:48:04,VALID,999.066,VALID,0,VALID,92.8448,VALID,0,VALID,23.797,VALID,198,VALID,1.46406,
2010-08-22, 01:49:04,VALID,999.063,VALID,0,VALID,92.8525,VALID,0,VALID,23.7988,VALID,199,VALID,1.42773,
2010-08-22, 01:50:04,VALID,999.047,VALID,0,VALID,92.8525,VALID,0,VALID,23.7988,VALID,199,VALID,1.68711,
2010-08-22, 01:51:04,VALID,999.058,VALID,0,VALID,92.8448,VALID,0,VALID,23.7579,VALID,204,VALID,1.22539,
2010-08-22, 01:52:04,VALID,999.067,VALID,0,VALID,92.8601,VALID,0,VALID,23.7597,VALID,198,VALID,1.56562,
2010-08-22, 01:53:04,VALID,999.072,VALID,0,VALID,92.883,VALID,0,VALID,23.7793,VALID,203,VALID,1.42461,
2010-08-22, 01:54:04,VALID,999.063,VALID,0,VALID,92.8525,VALID,0,VALID,23.7402,VALID,200,VALID,1.5875,
2010-08-22, 01:55:04,VALID,999.093,VALID,0.5,VALID,92.8296,VALID,0,VALID,23.7012,VALID,196,VALID,1.54219,
2010-08-22, 01:56:04,VALID,999.109,VALID,0,VALID,92.7914,VALID,0,VALID,23.6622,VALID,214,VALID,1.34453,
2010-08-22, 01:57:04,VALID,999.135,VALID,0,VALID,92.7838,VALID,0,VALID,23.6817,VALID,192,VALID,1.33555,
2010-08-22, 01:58:04,VALID,999.143,VALID,0,VALID,92.7991,VALID,0,VALID,23.7012,VALID,173,VALID,1.8707,
2010-08-22, 01:59:04,VALID,999.126,VALID,0,VALID,92.8525,VALID,0,VALID,23.7189,VALID,169,VALID,1.26016,
2010-08-22, 02:00:04,VALID,999.127,VALID,0,VALID,92.883,VALID,0,VALID,23.6799,VALID,163,VALID,1.28477,
2010-08-22, 02:01:04,VALID,999.099,VALID,0,VALID,92.9059,VALID,0,VALID,23.7012,VALID,169,VALID,0.671484,
2010-08-22, 02:02:04,VALID,999.097,VALID,0.5,VALID,92.9211,VALID,0,VALID,23.6817,VALID,173,VALID,1.025,
2010-08-22, 02:03:04,VALID,999.098,VALID,0,VALID,92.9669,VALID,0,VALID,23.7012,VALID,176,VALID,1.48438,
2010-08-22, 02:04:04,VALID,999.075,VALID,0,VALID,93.0203,VALID,0,VALID,23.6817,VALID,184,VALID,1.35977,
2010-08-22, 02:05:04,VALID,999.083,VALID,0,VALID,93.028,VALID,0,VALID,23.6817,VALID,168,VALID,1.67539,
2010-08-22, 02:06:04,VALID,999.065,VALID,0,VALID,93.0127,VALID,0,VALID,23.6817,VALID,168,VALID,1.45313,
2010-08-22, 02:07:04,VALID,999.052,VALID,0,VALID,93.0127,VALID,0,VALID,23.7012,VALID,174,VALID,1.49492,
2010-08-22, 02:08:04,VALID,998.982,VALID,0,VALID,92.9822,VALID,0,VALID,23.6214,VALID,179,VALID,1.35391,
2010-08-22, 02:09:04,VALID,998.957,VALID,0.5,VALID,92.9745,VALID,0,VALID,23.6409,VALID,187,VALID,1.17539,
2010-08-22, 02:10:04,VALID,998.912,VALID,0,VALID,92.9593,VALID,0,VALID,23.6019,VALID,177,VALID,1.45703,
2010-08-22, 02:11:04,VALID,998.911,VALID,0,VALID,92.9593,VALID,0,VALID,23.6427,VALID,180,VALID,1.36523,
2010-08-22, 02:12:04,VALID,998.907,VALID,0,VALID,92.9364,VALID,0,VALID,23.6232,VALID,162,VALID,1.24141,
2010-08-22, 02:13:04,VALID,998.885,VALID,0,VALID,92.9059,VALID,0,VALID,23.5646,VALID,162,VALID,1.29414,
2010-08-22, 02:14:04,VALID,998.883,VALID,0.5,VALID,92.8677,VALID,0,VALID,23.5451,VALID,162,VALID,0.596484,
2010-08-22, 02:15:04,VALID,998.872,VALID,0,VALID,92.883,VALID,0,VALID,23.5451,VALID,163,VALID,1.16289,
2010-08-22, 02:16:04,VALID,998.805,VALID,0,VALID,92.8677,VALID,0,VALID,23.5238,VALID,176,VALID,1.18164,
2010-08-22, 02:17:04,VALID,998.83,VALID,0,VALID,92.8677,VALID,0,VALID,23.5256,VALID,146,VALID,1.03437,
2010-08-22, 02:18:04,VALID,998.798,VALID,0,VALID,92.883,VALID,0,VALID,23.5061,VALID,172,VALID,0.694922,
2010-08-22, 02:19:04,VALID,998.815,VALID,0,VALID,92.8906,VALID,0,VALID,23.4866,VALID,155,VALID,0.960547,
2010-08-22, 02:20:04,VALID,998.794,VALID,0.5,VALID,92.9135,VALID,0,VALID,23.4653,VALID,151,VALID,0.893359,
2010-08-22, 02:21:04,VALID,998.802,VALID,0,VALID,92.9364,VALID,0,VALID,23.4458,VALID,151,VALID,0.931641,
2010-08-22, 02:22:04,VALID,998.772,VALID,0,VALID,92.9593,VALID,0,VALID,23.4671,VALID,149,VALID,0.848437,
2010-08-22, 02:23:04,VALID,998.779,VALID,0,VALID,93.0051,VALID,0,VALID,23.4653,VALID,162,VALID,0.705469,
2010-08-22, 02:24:04,VALID,998.791,VALID,0,VALID,93.028,VALID,0,VALID,23.4671,VALID,162,VALID,0.847656,
2010-08-22, 02:25:04,VALID,998.76,VALID,0,VALID,93.0508,VALID,0,VALID,23.4671,VALID,162,VALID,0.74375,
2010-08-22, 02:26:04,VALID,998.778,VALID,0.5,VALID,93.0737,VALID,0,VALID,23.4475,VALID,159,VALID,1.00273,
2010-08-22, 02:27:04,VALID,998.76,VALID,0,VALID,93.0661,VALID,0,VALID,23.4263,VALID,157,VALID,0.592969,
2010-08-22, 02:28:04,VALID,998.754,VALID,0,VALID,93.0661,VALID,0,VALID,23.428,VALID,156,VALID,0.400781,
2010-08-22, 02:29:04,VALID,998.743,VALID,0,VALID,93.1119,VALID,0,VALID,23.4263,VALID,147,VALID,0.660156,
2010-08-22, 02:30:04,VALID,998.714,VALID,0,VALID,93.1119,VALID,0,VALID,23.4085,VALID,140,VALID,0.700391,
2010-08-22, 02:31:04,VALID,998.746,VALID,0.5,VALID,93.1424,VALID,0,VALID,23.4067,VALID,142,VALID,0.963281,
2010-08-22, 02:32:04,VALID,998.742,VALID,0,VALID,93.15,VALID,0,VALID,23.389,VALID,144,VALID,1.3543,
2010-08-22, 02:33:04,VALID,998.755,VALID,0,VALID,93.1577,VALID,0,VALID,23.4067,VALID,116,VALID,0.835547,
2010-08-22, 02:34:04,VALID,998.729,VALID,0,VALID,93.1729,VALID,0,VALID,23.4085,VALID,149,VALID,0.735156,
2010-08-22, 02:35:04,VALID,998.69,VALID,0,VALID,93.1577,VALID,0,VALID,23.3695,VALID,168,VALID,0.875781,
2010-08-22, 02:36:04,VALID,998.644,VALID,0,VALID,93.15,VALID,0,VALID,23.3695,VALID,166,VALID,0.955078,
2010-08-22, 02:37:04,VALID,998.623,VALID,0.5,VALID,93.15,VALID,0,VALID,23.389,VALID,184,VALID,0.804688,
2010-08-22, 02:38:04,VALID,998.624,VALID,0,VALID,93.1805,VALID,0,VALID,23.428,VALID,198,VALID,1.07813,
2010-08-22, 02:39:04,VALID,998.589,VALID,0,VALID,93.1958,VALID,0,VALID,23.4085,VALID,177,VALID,1.45664,
2010-08-22, 02:40:04,VALID,998.578,VALID,0,VALID,93.1958,VALID,0,VALID,23.3695,VALID,197,VALID,1.52891,
2010-08-22, 02:41:04,VALID,998.535,VALID,0,VALID,93.1805,VALID,0,VALID,23.389,VALID,207,VALID,0.943359,
2010-08-22, 02:42:04,VALID,998.567,VALID,0,VALID,93.1271,VALID,0,VALID,23.35,VALID,197,VALID,1.24727,
2010-08-22, 02:43:04,VALID,998.526,VALID,0,VALID,93.0814,VALID,0,VALID,23.3305,VALID,200,VALID,0.9125,
2010-08-22, 02:44:04,VALID,998.521,VALID,0,VALID,93.0356,VALID,0,VALID,23.3305,VALID,176,VALID,1.25664,
2010-08-22, 02:45:04,VALID,998.516,VALID,0,VALID,93.028,VALID,0,VALID,23.3305,VALID,211,VALID,0.913281,
2010-08-22, 02:46:04,VALID,998.506,VALID,0,VALID,93.0127,VALID,0,VALID,23.35,VALID,199,VALID,1.00195,
2010-08-22, 02:47:04,VALID,998.516,VALID,0,VALID,93.0356,VALID,0,VALID,23.3287,VALID,194,VALID,0.933594,
2010-08-22, 02:48:04,VALID,998.472,VALID,0,VALID,93.0127,VALID,0,VALID,23.35,VALID,178,VALID,1.60469,
2010-08-22, 02:49:04,VALID,998.459,VALID,0.5,VALID,93.0432,VALID,0,VALID,23.3482,VALID,208,VALID,0.747656,
2010-08-22, 02:50:04,VALID,998.47,VALID,0,VALID,93.0203,VALID,0,VALID,23.3695,VALID,188,VALID,1.87812,
2010-08-22, 02:51:04,VALID,998.447,VALID,0,VALID,93.0203,VALID,0,VALID,23.3695,VALID,188,VALID,1.78945,
2010-08-22, 02:52:04,VALID,998.419,VALID,0,VALID,92.9745,VALID,0,VALID,23.4085,VALID,167,VALID,1.38008,
2010-08-22, 02:53:04,VALID,998.411,VALID,0,VALID,92.9364,VALID,0,VALID,23.3695,VALID,173,VALID,1.98672,
2010-08-22, 02:54:04,VALID,998.42,VALID,0,VALID,92.8525,VALID,0,VALID,23.35,VALID,176,VALID,1.77305,
2010-08-22, 02:55:04,VALID,998.4,VALID,0,VALID,92.7762,VALID,0,VALID,23.3695,VALID,174,VALID,1.54141,
2010-08-22, 02:56:04,VALID,998.382,VALID,0,VALID,92.7151,VALID,0,VALID,23.35,VALID,165,VALID,1.63945,
2010-08-22, 02:57:04,VALID,998.365,VALID,0,VALID,92.6923,VALID,0,VALID,23.35,VALID,152,VALID,0.870703,
2010-08-22, 02:58:04,VALID,998.353,VALID,0,VALID,92.6846,VALID,0,VALID,23.3305,VALID,157,VALID,1.29805,
2010-08-22, 02:59:04,VALID,998.313,VALID,0,VALID,92.7075,VALID,0,VALID,23.3305,VALID,150,VALID,0.994531,
2010-08-22, 03:00:04,VALID,998.288,VALID,0,VALID,92.7228,VALID,0,VALID,23.2897,VALID,152,VALID,0.937109,
2010-08-22, 03:01:04,VALID,998.274,VALID,0,VALID,92.7533,VALID,0,VALID,23.2915,VALID,164,VALID,0.919531,
2010-08-22, 03:02:04,VALID,998.249,VALID,0,VALID,92.7914,VALID,0,VALID,23.2507,VALID,168,VALID,0.985547,
2010-08-22, 03:03:04,VALID,998.232,VALID,0,VALID,92.8296,VALID,0,VALID,23.2719,VALID,173,VALID,0.813672,
2010-08-22, 03:04:04,VALID,998.216,VALID,0,VALID,92.8754,VALID,0,VALID,23.2524,VALID,173,VALID,0.483984,
2010-08-22, 03:05:04,VALID,998.156,VALID,0,VALID,92.9135,VALID,0,VALID,23.2524,VALID,176,VALID,0.989062,
2010-08-22, 03:06:04,VALID,998.175,VALID,0,VALID,92.9135,VALID,0,VALID,23.2329,VALID,181,VALID,0.620703,
2010-08-22, 03:07:04,VALID,998.172,VALID,0,VALID,92.9822,VALID,0,VALID,23.2134,VALID,181,VALID,0.719531,
2010-08-22, 03:08:04,VALID,998.168,VALID,0,VALID,92.9974,VALID,0,VALID,23.1939,VALID,175,VALID,0.791406,
2010-08-22, 03:09:04,VALID,998.164,VALID,0,VALID,93.0432,VALID,0,VALID,23.2134,VALID,158,VALID,0.301953,
2010-08-22, 03:10:04,VALID,998.181,VALID,0,VALID,93.0661,VALID,0,VALID,23.1939,VALID,158,VALID,0.0699219,
2010-08-22, 03:11:04,VALID,998.169,VALID,0,VALID,93.0737,VALID,0,VALID,23.1744,VALID,158,VALID,0.439453,
2010-08-22, 03:12:04,VALID,998.174,VALID,0,VALID,93.0432,VALID,0,VALID,23.1531,VALID,158,VALID,0.364844,
2010-08-22, 03:13:04,VALID,998.162,VALID,0,VALID,92.9822,VALID,0,VALID,23.1744,VALID,109,VALID,0.410547,
2010-08-22, 03:14:04,VALID,998.136,VALID,0,VALID,92.9898,VALID,0,VALID,23.1549,VALID,109,VALID,0.405469,
2010-08-22, 03:15:04,VALID,998.163,VALID,0,VALID,92.9669,VALID,0,VALID,23.1744,VALID,109,VALID,0,
2010-08-22, 03:16:04,VALID,998.186,VALID,0,VALID,92.9669,VALID,0,VALID,23.1744,VALID,109,VALID,0.00117188,
2010-08-22, 03:17:04,VALID,998.175,VALID,0,VALID,93.0203,VALID,0,VALID,23.1549,VALID,109,VALID,0,
2010-08-22, 03:18:04,VALID,998.187,VALID,0,VALID,93.0356,VALID,0,VALID,23.1744,VALID,109,VALID,0,
2010-08-22, 03:19:04,VALID,998.211,VALID,0,VALID,93.0814,VALID,0,VALID,23.1744,VALID,109,VALID,0,
2010-08-22, 03:20:04,VALID,998.185,VALID,0,VALID,93.1348,VALID,0,VALID,23.1744,VALID,109,VALID,0,
2010-08-22, 03:21:04,VALID,998.199,VALID,0,VALID,93.15,VALID,0,VALID,23.1744,VALID,109,VALID,0,
2010-08-22, 03:22:04,VALID,998.204,VALID,0,VALID,93.1958,VALID,0,VALID,23.1531,VALID,109,VALID,0,
2010-08-22, 03:23:04,VALID,998.217,VALID,0,VALID,93.234,VALID,0,VALID,23.1939,VALID,109,VALID,0,
2010-08-22, 03:24:04,VALID,998.207,VALID,0,VALID,93.2797,VALID,0,VALID,23.1744,VALID,109,VALID,0,
2010-08-22, 03:25:04,VALID,998.214,VALID,0,VALID,93.295,VALID,0,VALID,23.1549,VALID,109,VALID,0,
2010-08-22, 03:26:04,VALID,998.216,VALID,0,VALID,93.3255,VALID,0,VALID,23.1531,VALID,109,VALID,0,
2010-08-22, 03:27:04,VALID,998.229,VALID,0.5,VALID,93.3637,VALID,0,VALID,23.1744,VALID,109,VALID,0,
2010-08-22, 03:28:04,VALID,998.25,VALID,0,VALID,93.3942,VALID,0,VALID,23.1744,VALID,109,VALID,0,
2010-08-22, 03:29:04,VALID,998.251,VALID,0,VALID,93.4018,VALID,0,VALID,23.1939,VALID,145,VALID,0,
2010-08-22, 03:30:04,VALID,998.315,VALID,0,VALID,93.4018,VALID,0,VALID,23.2134,VALID,161,VALID,0,
2010-08-22, 03:31:04,VALID,998.289,VALID,0,VALID,93.4247,VALID,0,VALID,23.2117,VALID,176,VALID,0,
2010-08-22, 03:32:04,VALID,998.328,VALID,0,VALID,93.44,VALID,0,VALID,23.2329,VALID,176,VALID,0,
2010-08-22, 03:33:04,VALID,998.345,VALID,0,VALID,93.4705,VALID,0,VALID,23.2312,VALID,175,VALID,0,
2010-08-22, 03:34:04,VALID,998.403,VALID,0,VALID,93.4781,VALID,0,VALID,23.2312,VALID,175,VALID,0.815625,
2010-08-22, 03:35:04,VALID,998.439,VALID,0,VALID,93.4934,VALID,0,VALID,23.2312,VALID,191,VALID,0.908203,
2010-08-22, 03:36:04,VALID,998.458,VALID,0,VALID,93.5163,VALID,0,VALID,23.2719,VALID,185,VALID,1.4457,
2010-08-22, 03:37:04,VALID,998.472,VALID,0,VALID,93.5086,VALID,0,VALID,23.311,VALID,171,VALID,1.26055,
2010-08-22, 03:38:04,VALID,998.478,VALID,0,VALID,93.5086,VALID,0,VALID,23.311,VALID,164,VALID,1.12617,
2010-08-22, 03:39:04,VALID,998.479,VALID,0,VALID,93.5163,VALID,0,VALID,23.2702,VALID,162,VALID,1.32148,
2010-08-22, 03:40:04,VALID,998.486,VALID,0,VALID,93.4705,VALID,0,VALID,23.2719,VALID,175,VALID,0.853125,
2010-08-22, 03:41:04,VALID,998.463,VALID,0,VALID,93.4552,VALID,0,VALID,23.2897,VALID,163,VALID,0.809375,
2010-08-22, 03:42:04,VALID,998.491,VALID,0,VALID,93.44,VALID,0,VALID,23.2702,VALID,155,VALID,0.676562,
2010-08-22, 03:43:04,VALID,998.484,VALID,0,VALID,93.4247,VALID,0,VALID,23.2702,VALID,155,VALID,0.658594,
2010-08-22, 03:44:04,VALID,998.51,VALID,0,VALID,93.4018,VALID,0,VALID,23.2915,VALID,182,VALID,0.904297,
2010-08-22, 03:45:04,VALID,998.484,VALID,0,VALID,93.3942,VALID,0,VALID,23.311,VALID,191,VALID,0.730469,
2010-08-22, 03:46:04,VALID,998.488,VALID,0,VALID,93.4247,VALID,0,VALID,23.3092,VALID,196,VALID,0.952734,